Terminal Aerodrome Forecast
Issued by NWS

Home | Current Version | Previous Version | Text Only | Print | Product List | Glossary On
Versions: 1 2 3 4 5 6 7 8 9 10 11 12 13 14 15 16 17 18 19 20 21
000
FTUS44 KMOB 312300
TAFBFM
TAF
KBFM 312320Z 0100/0124 15003KT P6SM SKC
     FM011300 14007KT P6SM VCSH BKN035 OVC150
     FM011800 17014KT 4SM BR VCSH BKN020 PROB30 0118/0124 2SM SHRA
      BR BKN015=

USA.gov is the U.S. government's official web portal to all federal, state and local government web resources and services.